CW9676 Weather Reports


time (UTC)temp
F
wind
direction
speed
knots
gust
knots
rain 1hr
in
rain 24hr
in
rain mn
in
humidity
%
barometer
mb
20260510231309 83 227 9.6 16.5 0.00 0.00 0.00 14 1004.7
20260510225223 83 153 6.1 14.8 0.00 0.00 0.00 13 1004.6
20260510223109 83 153 2.6 29.5 0.00 0.00 0.00 14 1004.7
20260510222107 81 143 13.9 29.5 0.00 0.00 0.00 14 1005.0
20260510220005 79 242 2.6 14.8 0.00 0.00 0.00 14 1004.7
20260510214934 79 272 7.8 14.8 0.00 0.00 0.00 14 1004.8
20260510213957 81 288 2.6 8.7 0.00 0.00 0.00 14 1004.8
20260510212933 80 348 5.2 12.2 0.00 0.00 0.00 13 1004.9
20260510211925 80 318 4.3 12.2 0.00 0.00 0.00 14 1004.8
20260510210924 80 157 2.6 7.8 0.00 0.00 0.00 12 1004.9
20260510205854 80 259 3.5 15.6 0.00 0.00 0.00 13 1004.9
20260510204822 82 169 7.0 15.6 0.00 0.00 0.00 11 1004.9
20260510202718 84 290 8.7 16.5 0.00 0.00 0.00 11 1004.9
20260510201724 84 318 7.0 16.5 0.00 0.00 0.00 11 1004.9
20260510200731 82 210 8.7 17.4 0.00 0.00 0.00 12 1005.2
20260510195722 84 247 7.8 20.9 0.00 0.00 0.00 12 1005.2
20260510194656 83 219 10.4 20.0 0.00 0.00 0.00 12 1005.2
20260510193641 83 184 9.6 20.0 0.00 0.00 0.00 12 1005.2
20260510192610 84 175 7.8 18.2 0.00 0.00 0.00 12 1005.1
20260510185400 82 172 7.0 14.8 0.00 0.00 0.00 14 1005.6
20260510184354 83 191 7.0 14.8 0.00 0.00 0.00 12 1005.6
20260510182235 81 233 5.2 10.4 0.00 0.00 0.00 14 1005.9
20260510181200 81 246 4.3 9.6 0.00 0.00 0.00 14 1005.9
20260510180130 80 243 4.3 12.2 0.00 0.00 0.00 15 1006.0
20260510175134 81 220 4.3 12.2 0.00 0.00 0.00 15 1005.9
20260510174155 81 48 3.5 9.6 0.00 0.00 0.00 15 1006.1
20260510173143 80 285 4.3 10.4 0.00 0.00 0.00 14 1006.1
20260510172128 81 256 4.3 10.4 0.00 0.00 0.00 14 1006.1
20260510165938 80 64 2.6 5.2 0.00 0.00 0.00 16 1006.2
20260510164947 78 316 0.9 10.4 0.00 0.00 0.00 17 1006.2
20260510163954 79 297 4.3 10.4 0.00 0.00 0.00 17 1006.2
20260510163000 79 325 4.3 9.6 0.00 0.00 0.00 17 1006.1
20260510162000 77 173 2.6 7.8 0.00 0.00 0.00 18 1006.1
20260510160929 77 258 3.5 7.8 0.00 0.00 0.00 18 1006.2
20260510155954 76 216 2.6 7.8 0.00 0.00 0.00 19 1006.2
20260510153839 75 235 4.3 9.6 0.00 0.00 0.00 21 1006.1
20260510152855 74 140 2.6 7.8 0.00 0.00 0.00 21 1006.1
20260510151857 73 198 1.7 4.3 0.00 0.00 0.00 21 1006.0
20260510150854 74 133 2.6 5.2 0.00 0.00 0.00 21 1006.0
20260510144816 73 26 1.7 10.4 0.00 0.00 0.00 21 1005.9
20260510140415 67 220 2.6 4.3 0.00 0.00 0.00 24 1005.8
20260510135403 66 229 1.7 7.0 0.00 0.00 0.00 25 1005.6
20260510134328 64 248 2.6 7.0 0.00 0.00 0.00 26 1005.5
20260510133300 64 171 0.9 3.5 0.00 0.00 0.00 26 1005.3
20260510132235 63 180 0.9 2.6 0.00 0.00 0.00 27 1005.2
20260510131210 62 217 1.7 3.5 0.00 0.00 0.00 27 1005.1
20260510130217 62 256 2.6 7.0 0.00 0.00 0.00 26 1005.0
20260510125220 63 4 3.5 7.0 0.00 0.00 0.00 26 1004.8
20260510124242 64 213 2.6 7.8 0.00 0.00 0.00 27 1004.5
20260510123216 65 268 4.3 8.7 0.00 0.00 0.00 26 1004.3
20260510122211 65 290 4.3 8.7 0.00 0.00 0.00 26 1004.2
20260510121139 65 289 4.3 7.8 0.00 0.00 0.00 26 1004.1
20260510120106 65 302 5.2 9.6 0.00 0.00 0.00 26 1004.1
20260510114017 66 298 6.1 10.4 0.00 0.00 0.00 24 1004.4
20260510111849 64 242 2.6 5.2 0.00 0.00 0.00 23 1004.5
20260510110914 64 239 3.5 7.8 0.00 0.00 0.00 23 1004.5
20260510105900 65 236 4.3 7.8 0.00 0.00 0.00 22 1004.6
20260510104908 65 215 3.5 7.8 0.00 0.00 0.00 22 1004.5
20260510103835 65 227 4.3 7.8 0.00 0.00 0.00 22 1004.4
20260510102828 65 223 3.5 9.6 0.00 0.00 0.00 22 1004.3
20260510101847 65 229 4.3 9.6 0.00 0.00 0.00 22 1004.3
20260510100833 65 221 3.5 7.8 0.00 0.00 0.00 22 1004.0
20260510094754 66 230 3.5 8.7 0.00 0.00 0.00 21 1003.6
20260510092533 67 246 6.1 11.3 0.00 0.00 0.00 20 1003.6
20260510091539 67 249 7.0 11.3 0.00 0.00 0.00 20 1003.5
20260510090517 67 238 5.2 9.6 0.00 0.00 0.00 21 1003.5
20260510085454 67 230 3.5 8.7 0.00 0.00 0.00 21 1003.5
20260510084512 67 230 4.3 8.7 0.00 0.00 0.00 20 1003.5
20260510083528 68 242 7.0 13.0 0.00 0.00 0.00 20 1003.5
20260510082535 68 225 7.0 13.0 0.00 0.00 0.00 20 1003.4
20260510080342 69 244 7.8 13.0 0.00 0.00 0.00 20 1003.6
20260510075403 69 231 9.6 16.5 0.00 0.00 0.00 19 1003.5
20260510074340 69 246 9.6 16.5 0.00 0.00 0.00 19 1003.5
20260510073336 68 246 8.7 16.5 0.00 0.00 0.00 20 1003.5
20260510071240 68 252 6.1 12.2 0.00 0.00 0.00 20 1003.8
20260510070211 68 223 6.1 12.2 0.00 0.00 0.00 20 1003.7
20260510065155 69 226 7.0 11.3 0.00 0.00 0.00 20 1003.8
20260510064148 69 232 6.1 11.3 0.00 0.00 0.00 20 1003.8
20260510063151 69 236 6.1 16.5 0.00 0.00 0.00 19 1003.7
20260510062155 69 184 7.0 16.5 0.00 0.00 0.00 19 1003.8
20260510061150 70 234 7.8 13.9 0.00 0.00 0.00 19 1003.7
20260510060128 70 228 7.8 15.6 0.00 0.00 0.00 19 1003.6
20260510055152 70 195 7.8 15.6 0.00 0.00 0.00 18 1003.6
20260510054158 71 228 9.6 15.6 0.00 0.00 0.00 18 1003.6
20260510053157 71 223 9.6 17.4 0.00 0.00 0.00 18 1003.4
20260510052123 71 223 8.7 17.4 0.00 0.00 0.00 18 1003.5
20260510051143 71 236 8.7 15.6 0.00 0.00 0.00 18 1003.5
20260510044942 71 253 7.0 14.8 0.00 0.00 0.00 18 1003.4
20260510043943 71 222 6.1 11.3 0.00 0.00 0.00 17 1003.4
20260510042909 71 214 6.1 11.3 0.00 0.00 0.00 17 1003.2
20260510041910 71 227 6.1 10.4 0.00 0.00 0.00 16 1003.2
20260510040934 71 231 6.1 11.3 0.00 0.00 0.00 16 1003.1
20260510034807 71 217 6.1 10.4 0.00 0.00 0.00 16 1002.8
20260510033806 71 233 4.3 8.7 0.00 0.00 0.00 16 1002.8
20260510032734 71 240 4.3 8.7 0.00 0.00 0.00 16 1002.5
20260510031711 72 229 4.3 7.8 0.00 0.00 0.00 16 1002.5
20260510025532 73 223 5.2 10.4 0.00 0.00 0.00 15 1002.1
20260510024507 73 227 6.1 12.2 0.00 0.00 0.00 15 1001.9
20260510023527 74 4 6.1 13.0 0.00 0.00 0.00 14 1001.8
20260510021350 75 200 7.8 12.2 0.00 0.00 0.00 14 1001.4
20260510020358 76 173 7.8 14.8 0.00 0.00 0.00 13 1001.3
20260510015335 77 162 9.6 14.8 0.00 0.00 0.00 13 1001.2
20260510014316 77 233 10.4 20.0 0.00 0.00 0.00 13 1001.1
20260510013324 78 4 10.4 20.0 0.00 0.00 0.00 12 1001.0
20260510012341 79 173 12.2 21.7 0.00 0.00 0.00 12 1000.9
20260510010222 80 211 12.2 20.9 0.00 0.00 0.00 12 1000.9
20260510005216 81 214 11.3 19.1 0.00 0.00 0.00 12 1000.8
20260510004208 81 186 11.3 20.9 0.00 0.00 0.00 12 1000.8
20260510003212 81 167 13.0 20.9 0.00 0.00 0.00 12 1000.8
20260510002233 82 179 10.4 23.5 0.00 0.00 0.00 12 1000.8
20260510001212 83 165 11.3 23.5 0.00 0.00 0.00 11 1000.6
20260509235020 83 157 11.3 21.7 0.00 0.00 0.00 12 1000.6
20260509233954 83 182 13.0 21.7 0.00 0.00 0.00 12 1000.6
20260509232949 85 168 8.7 21.7 0.00 0.00 0.00 12 1000.6
20260509231920 83 148 11.3 21.7 0.00 0.00 0.00 12 1000.8